Location: La Pernelle
(49.6188°N, 1.2999°W)
Time: 08:32:48
(UTC+00:00)

Cosmos 2333 Rocket - Pass Details

Date: 12 June 2021
Orbit: 841 x 861 km, 70.8° (Epoch: 01 August)

Event Time Altitude Azimuth Distance (km) Brightness Sun altitude
Exits shadow 23:42:00 19° 214° (SW) 1,945 3.7 -17.0°
Maximum altitude 23:46:16 79° 300° (WNW) 880 2.3 -17.0°
Drops below altitude 10° 23:52:02 10° 27° (NNE) 2,495 5.5 -17.1°
Sets 23:54:30 0° 29° (NNE) 3,432 6.4 -17.1°
